Simultaneous Nadir Overpasses (SNOs) Predictions

Prediction of SNOs between METOP-C and LANDSAT-8 Satellite Orbit:

Table of predicted SNOs for the next 14.0 days since TLE Epoch: 8/3/2019
Index Date (METOP-C) Time (METOP-C) Lat,Lon (METOP-C) SZA (METOP-C ) Date (LANDSAT-8) Time (LANDSAT-8) Lat,Lon (LANDSAT-8) SZA (LANDSAT-8 ) Distance(km) Time Diff (sec)
1 08/05/2019 06:22:25 -80.99, -59.11 114.37 08/05/2019 06:23:39 -80.91, -58.90 114.39 9.87 74
2 08/05/2019 07:12:56 81.14, 112.12 66.14 08/05/2019 07:12:56 81.14, 112.02 66.13 1.82 0
3 08/05/2019 08:03:35 -81.15, -80.15 113.80 08/05/2019 08:02:22 -81.16, -80.01 113.82 2.28 73
4 08/08/2019 01:56:39 -81.12, 10.46 113.19 08/08/2019 01:57:47 -81.12, 10.53 113.15 1.30 68
5 08/08/2019 02:47:18 81.15, 178.72 66.94 08/08/2019 02:47:12 81.14, 178.59 66.93 2.25 6
6 08/10/2019 21:31:01 -81.12, 77.07 112.34 08/10/2019 21:32:03 -81.13, 77.11 112.31 0.74 62
7 08/10/2019 22:21:40 81.15,-114.69 67.79 08/10/2019 22:21:28 81.15,-114.86 67.76 2.91 12
8 08/13/2019 17:05:22 -81.13, 143.69 111.47 08/13/2019 17:06:18 -81.13, 143.67 111.44 0.54 56
9 08/13/2019 17:56:03 81.13, -48.85 68.57 08/13/2019 17:55:44 81.13, -48.68 68.57 2.95 19
10 08/16/2019 12:39:45 -81.13,-150.06 110.60 08/16/2019 12:40:35 -81.12,-150.14 110.60 1.51 50




NCC Satellite Simultaneous Nadir Overpasses (SNOs) Prediction Service
